Regional Weather Roundup
Issued by NWS

Home | Current Version | Previous Version | Graphics & Text | Print | Product List | Glossary On
Versions: 1 2 3 4 5 6 7 8 9 10 11 12 13 14 15 16 17 18 19 20 21 22 23 24 25 26 27 28 29 30 31 32 33 34 35 36 37 38 39 40 41 42 43 44 45 46 47 48 49 50
968
ASUS45 KBOU 090407
RWRCO

WEATHER ROUNDUP FOR COLORADO
NATIONAL WEATHER SERVICE DENVER/BOULDER CO
900 PM MST THU DEC 08 2016

NOTE: "FAIR" INDICATES FEW OR NO CLOUDS BELOW 12000 FEET WITH NO
SIGNIFICANT WEATHER AND/OR OBSTRUCTIONS TO VISIBILITY.

COZ001>005-013-030-031-090500-
...NORTHWEST COLORADO...

CITY           SKY/WX    TMP DP  RH WIND       PRES   REMARKS
CRAIG          CLOUDY    21  13  71 E12       30.17S WCI   9
HAYDEN         CLOUDY    16   9  73 E8        30.17S WCI   5
MEEKER         CLOUDY    26  16  65 NE5       30.19R WCI  20
MOUNT WERNER   NOT AVBL
STEAMBOAT SPGS CLOUDY    14  11  89 CALM      30.17R
WALDEN           N/A     19  14  79 S13G18    30.09S WCI   7
$$

COZ006>008-011-090500-
...WEST CENTRAL VALLEYS...

CITY           SKY/WX    TMP DP  RH WIND       PRES   REMARKS
GRAND JUNCTION CLOUDY    26  16  65 E3        30.28R
MONTROSE       CLOUDY    27  15  61 E3        30.29R
EAGLE          FLURRIES  17  13  84 CALM      30.24S
RIFLE          CLOUDY    24  13  62 CALM      30.27R
DELTA          NOT AVBL
NUCLA          CLOUDY    30  12  47 SE5       30.31S WCI  25
$$

COZ017>023-064>068-090500-
...SOUTHWEST COLORADO...

CITY           SKY/WX    TMP DP  RH WIND       PRES   REMARKS
DURANGO        MOCLDY    27  10  49 N9        30.30S WCI  18
CORTEZ         MOCLDY    27  21  78 NE5       30.30R WCI  22
PAGOSA SPRINGS FAIR      21  10  62 CALM      30.31S
TELLURIDE      CLOUDY    30  18  60 CALM      30.28R
WOLF CREEK PAS FAIR       9   9 100 SW15G21   30.28S WCI  -8
$$

COZ009-010-012-014-032>034-037-058>063-090500-
...CENTRAL COLORADO...

CITY           SKY/WX    TMP DP  RH WIND       PRES   REMARKS
ASPEN          NOT AVBL
BUENA VISTA    CLOUDY    30  17  58 W13G24    30.16S WCI  20
COPPER MTN     CLOUDY    19  14  79 MISG      30.10S
BERTHOUD PASS  SNOW      10   0  61 W26G38    30.01S VSB 1/2 WCI -11
COTTONWOOD PAS LGT SNOW  25  19  80 W15G31    30.11F WCI  12
GUNNISON       LGT SNOW  16  13  88 W3        30.31R FOG
KREMMLING      LGT SNOW  14   9  79 CALM      30.19S
LEADVILLE      LGT SNOW  18  14  84 SE3       30.11S FOG
MONARCH PASS   SNOW      12  10  92 W35       30.27R VSB 1/2 WCI -10
SALIDA         CLOUDY    33  15  47 SW8       30.24S WCI  25
SUNLIGHT       CLOUDY    18  16  93 SW21G32   30.18R WCI   1
WILKERSON PASS CLOUDY    14  10  85 SW23G32   30.07R WCI  -5
$$

COZ069>075-090500-
...SAN LUIS VALLEY/SANGRE DE CRISTO MOUNTAINS...

CITY           SKY/WX    TMP DP  RH WIND       PRES   REMARKS
ALAMOSA        FAIR       8   3  80 MISG      30.25S
LA VETA PASS   FAIR      21   9  58 NE30G47   30.12S WCI   3
SAGUACHE       CLOUDY    21  16  79 CALM      30.26R
$$

COZ035-036-038>040-090500-
...NORTHERN COLORADO FRONT RANGE...

CITY           SKY/WX    TMP DP  RH WIND       PRES   REMARKS
DENVER INTL AP MOCLDY     8   3  80 CALM      30.21F
DMNS CITY PARK   N/A      9   3  77 E5        30.21F WCI   1
AURORA         MOCLDY     5   3  88 NE5       30.20F WCI  -4
FRONT RANGE AP MOCLDY    10   7  85 CALM      30.22F
ERIE MUNI ARPT FAIR       7   4  89 CALM      30.24F
BOULDER MUN AP CLOUDY     9   5  85 CALM      30.22F
CENTENNIAL     MOCLDY     7   4  87 CALM      30.17F
BROOMFIELD     PTCLDY     9   5  85 CALM      30.20F
FORT COLLINS   FAIR      10   3  72 CALM      30.25F
LONGMONT       FAIR       9   4  79 CALM      30.26F
$$

COZ041-046-047-076>085-087-088-090500-
...PIKES PEAK/PALMER DIVIDE AND SOUTHERN FOOTHILLS...

CITY           SKY/WX    TMP DP  RH WIND       PRES   REMARKS
COLO. SPRINGS  LGT SNOW  10   6  84 E7        30.21F FOG     WCI  -1
A. F. ACADEMY  CLOUDY    11   7  83 S13       30.17F WCI  -4
SCHRIEVER AFB  NOT AVBL
ELLICOTT       FAIR     N/A N/A N/A SE8         N/A
FALCON         LGT SNOW   8   6  90 S6        30.18F WCI  -2
FORT CARSON    LGT SNOW   9   5  84 SE9       30.22F WCI  -4
LIMON          FAIR       7   0  73 S10       30.26F WCI  -8
MONUMENT HILL  FAIR       9   3  78 S21       30.12F WCI -11
TRINIDAD       FAIR      11   6  81 NW10      30.26S WCI  -3
$$

COZ042>045-048>051-090-091-090500-
...NORTHEAST COLORADO...

CITY           SKY/WX    TMP DP  RH WIND       PRES   REMARKS
GREELEY ARPT   MOCLDY    12   5  73 N3        30.27F
AKRON          CLOUDY    11   4  73 S13       30.30F WCI  -4
BURLINGTON     FAIR      11   2  67 SE14      30.38F WCI  -5
WRAY           CLOUDY    10   3  72 CALM      30.42F
STERLING       FAIR      14   5  67 S9        30.33F WCI   2
HOLYOKE        FAIR       7   1  78 S7        30.41F WCI  -5
FORT MORGAN    CLOUDY    15   7  69 SE12      30.29F WCI   2
$$

COZ086-089-092>099-090500-
...SOUTHEAST COLORADO...

CITY           SKY/WX    TMP DP  RH WIND       PRES   REMARKS
PUEBLO         FAIR      14   1  56 N6        30.31F WCI   5
LA JUNTA       FAIR      16   4  59 E8        30.33F WCI   5
LAMAR          FAIR      10  -1  61 E7        30.38F WCI  -1
SPRINGFIELD      N/A     18   3  52 S18       30.37F WCI   2
$$




USA.gov is the U.S. government's official web portal to all federal, state and local government web resources and services.